Regional Weather Roundup
Issued by NWS

Home | Current Version | Previous Version | Text Only | Print | Product List | Glossary On
Versions: 1 2 3 4 5 6 7 8 9 10 11 12 13 14 15 16 17 18 19 20 21 22 23 24 25 26 27 28
000
ASUS46 KSEW 240710
RWRWA

WASHINGTON REGIONAL WEATHER ROUNDUP
NATIONAL WEATHER SERVICE SEATTLE WA
1200 AM PDT THU APR 24 2014

NOTE:"FAIR" INDICATES FEW OR NO CLOUDS BELOW 12,000 FEET WITH NO
SIGNIFICANT WEATHER AND/OR OBSTRUCTIONS TO VISIBILITY.

WAZ505-507>509-240800-
SEATTLE, TACOMA, EVERETT, AND VICINITY

CITY           SKY/WX    TMP DP  RH WIND       PRES   REMARKS
EVERETT        LGT RAIN  47  44  90 SE8       29.64F
BOEING FIELD   LGT RAIN  51  47  86 SE10      29.65F
RENTON         LGT RAIN  49  48  97 VRB3      29.65F
SEATAC AIRPORT LGT RAIN  49  46  90 SE13      29.65F
JBLM-MCCHORD   CLOUDY    50  50 100 SE10      29.65F
PUYALLUP       LGT RAIN  48  48 100 S9        29.67S
JBLM-FT LEWIS  DRIZZLE   50  49  99 SE8       29.64F
TACOMA NARROWS LGT RAIN  49  46  90 S10G17    29.64F
$$

WAZ001-503-506-510-514-515-240800-
NORTH INTERIOR

CITY           SKY/WX    TMP DP  RH WIND       PRES   REMARKS
BELLINGHAM     RAIN      47  43  86 NE8       29.63F
FRIDAY HARBOR  LGT RAIN  47  44  90 E12       29.62F
EASTSOUND      RAIN      46  45  93 E8        29.60F
PORT ANGELES   LGT RAIN  47  45  93 S5        29.56F
NAS WHIDBEY    LGT RAIN  50  44  80 E18       29.61F
BURLINGTON     CLOUDY    48  45  87 E7        29.65F
$$

WAZ020-022-039-040-504-511-512-240800-
SOUTHWEST INTERIOR

CITY           SKY/WX    TMP DP  RH WIND       PRES   REMARKS
SHELTON        LGT RAIN  46  45  96 N6        29.60F FOG
OLYMPIA        LGT RAIN  51  49  92 S14       29.62F
CHEHALIS       CLOUDY    52  52 100 S9G18     29.67S FOG
KELSO          CLOUDY    54  48  82 SE15G26   29.72F
VANCOUVER      CLOUDY    54  49  83 SE10      29.76S
SCAPPOOSE, OR  LGT RAIN  53  50  89 SE12G21   29.72F
PORTLAND, OR   CLOUDY    54  50  86 S12       29.76F
$$

WAZ021-516-517-240800-
WASHINGTON COAST

CITY           SKY/WX    TMP DP  RH WIND       PRES   REMARKS
FORKS          RAIN      50  49  96 SE9       29.51F VSB 1
HOQUIAM        RAIN      53  51  93 S23G32    29.59F FOG
ASTORIA, OR    LGT RAIN  53  50  89 S23G40    29.63F FOG
$$

WAZ019-023-024-040-518-519-240800-
CASCADE MOUNTAINS AND COLUMBIA GORGE

CITY           SKY/WX    TMP DP  RH WIND       PRES   REMARKS
STAMPEDE PASS  NOT AVBL
TROUTDALE, OR  CLOUDY    55  48  77 S6        29.77S
THE DALLES, OR CLOUDY    51  48  89 E7        29.77S
$$

WAZ026-027-041>044-520-521-240800-
EAST SLOPES

CITY           SKY/WX    TMP DP  RH WIND       PRES   REMARKS
OMAK           RAIN      49  41  74 S12       29.76S
WENATCHEE      CLOUDY    50  43  77 SE13      29.72F
ELLENSBURG     CLOUDY    47  43  86 E7        29.72F
YAKIMA         CLOUDY    51  44  77 SE8       29.73F
$$

WAZ028-034-035-240800-
COLUMBIA BASIN

CITY           SKY/WX    TMP DP  RH WIND       PRES   REMARKS
EPHRATA        LGT RAIN  47  45  93 SE15      29.75F
MOSES LAKE     CLOUDY    48  46  93 SE13      29.77F
HANFORD        NOT AVBL
PASCO          CLOUDY    52  47  83 SE10      29.79F
HERMISTON, OR  CLOUDY    51  48  89 E8        29.78F
$$

WAZ036>038-240800-
NORTHEAST WASHINGTON

CITY           SKY/WX    TMP DP  RH WIND       PRES   REMARKS
SPOKANE GEIGER LGT RAIN  42  37  82 SE10      29.82S
SPOKANE FELTS  CLOUDY    47  37  68 S6        29.84S
FAIRCHILD AFB  LGT RAIN  41  39  92 SE7       29.81F
COEURDALENE,ID CLOUDY    43  36  75 S7        29.84F
DEER PARK      CLOUDY    43  37  79 SE6       29.83F
$$

WAZ029>033-240800-
SOUTHEAST WASHINGTON

CITY           SKY/WX    TMP DP  RH WIND       PRES   REMARKS
PULLMAN        LGT RAIN  40  37  89 E12       29.86F
LEWISTON, ID   CLOUDY    45  37  73 E6        29.87F
WALLA WALLA    LGT RAIN  51  45  79 CALM      29.83S
PENDLETON, OR  LGT RAIN  50  42  74 S12       29.80F
$$



USA.gov is the U.S. government's official web portal to all federal, state and local government web resources and services.